Weather History for Madrid, Spain

Change the Weather History Date:

Tuesday, November 13, 2012

  Actual Average Record
Temperature  
Mean Temperature 48 °F -  
Max Temperature 62 °F 52 °F 68 °F (2006)
Min Temperature 33 °F 36 °F 33 °F (2004)
Degree Days  
Heating Degree Days 18    
Moisture  
Dew Point 33 °F    
Average Humidity 60    
Maximum Humidity 93    
Minimum Humidity 23    
Precipitation  
Precipitation 0.00 in 0.07 in - ()
Sea Level Pressure  
Sea Level Pressure 30.15 in    
Wind  
Wind Speed 6 mph ()    
Max Wind Speed 12 mph    
Max Gust Speed -    
Visibility 19.0 miles    
Events      
Averages and records for this station are not official NWS values.
T = Trace of Precipitation, MM = Missing Value Source: Averaged Metar Reports

Daily Weather History Graph

Daily Weather History Graph

Search for Another Location

Airport:

Trip Planner

Search our weather history database for the weather conditions in past years. The results will help you decide how hot, cold, wet, or windy it might be!

Date:

Astronomy

Nov. 13, 2012 Rise Set
Actual Time 7:58 AM CET 5:58 PM CET
Civil Twilight 7:29 AM CET 6:27 PM CET
Nautical Twilight 6:56 AM CET 7:00 PM CET
Astronomical Twilight 6:24 AM CET 7:32 PM CET
Moon 7:19 AM CET (11/13) 5:39 PM CET (11/13)
Length of Visible Light 10h 58m
Length of Day
9h 59m
Waning Crescent, 0% of the Moon is Illuminated
Nov 13
Waning Crescent
Nov 13
New
Nov 20
First Quarter
Nov 28
Full
Dec 6
Last Quarter

Hourly Weather History & Observations

Time (CET) Temp. Windchill Dew Point Humidity Pressure Visibility Wind Dir Wind Speed Gust Speed Precip Events Conditions
12:00 AM 44.6 °F 42.2 °F 33.8 °F 66% 30.24 in - East 4.6 mph - N/A   Clear
12:30 AM 42.8 °F 41.1 °F 33.8 °F 70% 30.24 in - NNW 3.5 mph - N/A   Clear
1:00 AM 42 °F - 31 °F 54% 30.29 in 19 mi North 6.9 mph - -   Clear
1:00 AM 42.8 °F 38.6 °F 32.0 °F 66% 30.24 in - North 6.9 mph - N/A   Clear
1:30 AM 42.8 °F 38.6 °F 32.0 °F 66% 30.21 in - North 6.9 mph - N/A   Clear
2:00 AM 41.0 °F 38.0 °F 32.0 °F 70% 30.21 in - North 4.6 mph - N/A   Clear
3:00 AM 37.4 °F 31.4 °F 33.8 °F 87% 30.21 in - NNW 8.1 mph - N/A   Clear
3:30 AM 35.6 °F 29.2 °F 33.8 °F 93% 30.21 in - NW 8.1 mph - N/A   Clear
4:00 AM 37.4 °F 30.8 °F 33.8 °F 87% 30.21 in - NNW 9.2 mph - N/A   Clear
4:30 AM 35.6 °F 27.5 °F 33.8 °F 93% 30.18 in - NNW 11.5 mph - N/A   Clear
5:00 AM 35.6 °F 29.9 °F 33.8 °F 93% 30.21 in - NNW 6.9 mph - N/A   Clear
5:30 AM 35.6 °F 29.9 °F 33.8 °F 93% 30.21 in - North 6.9 mph - N/A   Clear
6:00 AM 35.6 °F 29.2 °F 32.0 °F 87% 30.18 in - North 8.1 mph - N/A   Clear
6:30 AM 33.8 °F 28.6 °F 32.0 °F 93% 30.18 in - NNW 5.8 mph - N/A   Clear
7:00 AM 33 °F - 29 °F 80% 30.29 in 19 mi NNW 8.1 mph - -  
7:00 AM 33.8 °F 27.7 °F 32.0 °F 93% 30.18 in - NNW 6.9 mph - N/A   Clear
7:30 AM 33.8 °F 30.8 °F 32.0 °F 93% 30.18 in - NNW 3.5 mph - N/A   Clear
8:00 AM 33.8 °F 28.6 °F 32.0 °F 93% 30.21 in - NNW 5.8 mph - N/A   Clear
8:30 AM 35.6 °F 30.7 °F 32.0 °F 87% 30.21 in - North 5.8 mph - N/A   Clear
9:00 AM 35.6 °F 29.2 °F 32.0 °F 87% 30.21 in - NNW 8.1 mph - N/A   Clear
9:30 AM 37.4 °F 31.4 °F 32.0 °F 81% 30.21 in - NNW 8.1 mph - N/A   Clear
10:00 AM 39.2 °F 33.0 °F 32.0 °F 75% 30.18 in - NNW 9.2 mph - N/A   Clear
10:30 AM 44.6 °F 40.2 °F 32.0 °F 61% 30.18 in - NNW 8.1 mph - N/A   Clear
11:00 AM 48.2 °F - 33.8 °F 58% 30.18 in - North 6.9 mph - N/A   Clear
11:30 AM 51.8 °F - 32.0 °F 47% 30.18 in - NE 5.8 mph - N/A   Clear
12:00 PM 53.6 °F - 32.0 °F 44% 30.18 in - NE 6.9 mph - N/A   Clear
12:30 PM 55.4 °F - 32.0 °F 41% 30.15 in - NE 5.8 mph - N/A   Clear
1:00 PM 55 °F - 29 °F 25% 30.14 in 19 mi NNE 4.6 mph - -  
1:00 PM 57.2 °F - 35.6 °F 44% 30.15 in - NNE 4.6 mph - N/A   Clear
1:30 PM 57.2 °F - 32.0 °F 38% 30.12 in - NNE 5.8 mph - N/A   Clear
2:00 PM 59.0 °F - 37.4 °F 45% 30.12 in - North 6.9 mph - N/A   Clear
2:30 PM 60.8 °F - 32.0 °F 34% 30.09 in - North 5.8 mph - N/A   Clear
3:00 PM 62.6 °F - 32.0 °F 32% 30.09 in - North 6.9 mph - N/A   Clear
3:30 PM 62.6 °F - 35.6 °F 37% 30.06 in - North 5.8 mph - N/A   Clear
4:00 PM 62.6 °F - 33.8 °F 34% 30.06 in - North 6.9 mph - N/A   Clear
4:30 PM 62.6 °F - 30.2 °F 30% 30.06 in - ENE 5.8 mph - N/A   Clear
5:00 PM 62.6 °F - 33.8 °F 34% 30.06 in - NE 3.5 mph - N/A   Clear
5:30 PM 60.8 °F - 35.6 °F 39% 30.06 in - NNE 5.8 mph - N/A   Clear
6:00 PM 59.0 °F - 35.6 °F 42% 30.06 in - Variable 2.3 mph - N/A   Clear
6:30 PM 55.4 °F - 33.8 °F 44% 30.06 in - North 6.9 mph - N/A   Clear
7:00 PM 56 °F - 29 °F 23% 30.09 in 19 mi NNE 11.5 mph - -   Clear
7:00 PM 57.2 °F - 32.0 °F 38% 30.09 in - NNE 11.5 mph - N/A   Clear
7:30 PM 55.4 °F - 33.8 °F 44% 30.09 in - North 6.9 mph - N/A   Clear
8:30 PM 53.6 °F - 33.8 °F 47% 30.09 in - North 9.2 mph - N/A   Clear
9:00 PM 53.6 °F - 33.8 °F 47% 30.09 in - North 10.4 mph - N/A   Clear
9:30 PM 53.6 °F - 32.0 °F 44% 30.09 in - North 10.4 mph - N/A   Clear
10:00 PM 53.6 °F - 33.8 °F 47% 30.09 in - North 9.2 mph - N/A   Clear
10:30 PM 53.6 °F - 35.6 °F 51% 30.09 in - North 11.5 mph - N/A   Clear
11:00 PM 53.6 °F - 37.4 °F 54% 30.09 in - North 9.2 mph - N/A   Clear
11:30 PM 53.6 °F - 39.2 °F 58% 30.09 in - North 6.9 mph - N/A   Clear